Regional Weather Roundup
Issued by NWS

Home | Current Version | Previous Version | Graphics & Text | Print | Product List | Glossary On
Versions: 1 2 3 4 5 6 7 8 9 10 11 12 13 14 15 16 17 18 19 20 21 22 23 24 25 26 27 28 29 30 31 32 33 34 35 36 37 38 39 40 41 42 43 44 45 46 47 48 49 50
000
ASUS45 KABQ 261901
RWRNM
WEATHER ROUNDUP FOR NEW MEXICO
NATIONAL WEATHER SERVICE ALBUQUERQUE NM
1200 PM MST WED NOV 26 2014

NOTE: "FAIR" MEANS FEW OR NO CLOUDS BELOW 12,000 FEET AGL WITH NO
       SIGNIFICANT WEATHER OR OBSTRUCTIONS TO VISION.

      THIS PRODUCT IS RELEASED AS TWO VERSIONS.  ONE VERSION NEAR
      THE TOP OF THE HOUR CONTAINING PRELIMINARY DATA FROM ALBUQUERQUE
      AND OTHER STATIONS.  A FINAL VERSION WITH ADDITIONAL DATA IS
      ISSUED ABOUT 10 MINUTES AFTER THE HOUR.

NMZ501-503-504-510>518-262000-
NORTHWEST PLATEAU/NORTHCENTRAL MOUNTAINS

CITY           SKY/WX    TMP DP  RH WIND       PRES   REMARKS
FARMINGTON     SUNNY     49  16  26 W18G25    30.35F
SANTA FE       SUNNY     48  17  29 SW10      30.34F
TAOS           SUNNY     41  21  45 SW6       30.36R

$$
NMZ402-403-502-505>509-262000-
WESTCENTRAL MOUNTAINS/SOUTHWEST MOUNTAINS

CITY           SKY/WX    TMP DP  RH WIND       PRES   REMARKS
GALLUP         SUNNY     53  17  24 SW8       30.41F
SILVER CITY    SUNNY     57  18  21 S9        30.38F

$$
NMZ407-409-411-412-262000-
SOUTHERN DESERTS

CITY           SKY/WX    TMP DP  RH WIND       PRES   REMARKS
DEMING         SUNNY     58  13  17 CALM      30.34F
HOLLOMAN AFB   SUNNY     61  20  20 N10       30.31F
ALAMOGORDO     SUNNY     63  19  19 NW13G20   30.32F
T OR C         SUNNY     56  16  20 SE6       30.34F

$$
NMZ519>523-262000-
CENTRAL VALLEYS/CENTRAL HIGHLANDS

CITY           SKY/WX    TMP DP  RH WIND       PRES   REMARKS
ALBUQUERQUE    MOSUNNY   53  17  24 CALM      30.37F
DOUBLE EAGLE   SUNNY     52  19  28 CALM      30.37F
CLINES CORNERS SUNNY     48  21  34 NW26G33   30.30F
BELEN          FAIR      54  17  23 E8        30.37F
SOCORRO        NOT AVBL

$$
NMZ524>526-539-540-262000-
SOUTHCENTRAL MOUNTAINS

CITY           SKY/WX    TMP DP  RH WIND       PRES   REMARKS
RUIDOSO        SUNNY     50  19  29 NW12G17   30.36F

$$
NMZ527>531-262000-
NORTHEAST HIGHLANDS/NORTHEAST PLAINS

CITY           SKY/WX    TMP DP  RH WIND       PRES   REMARKS
LAS VEGAS      SUNNY     54  19  25 VRB6      30.26F
RATON          MOSUNNY   50  22  33 SW8       30.20F
CLAYTON        SUNNY     43  24  47 S8        30.23F

$$
NMZ532>537-262000-
EASTCENTRAL PLAINS

CITY           SKY/WX    TMP DP  RH WIND       PRES   REMARKS
TUCUMCARI      MOSUNNY   46  26  45 SE3       30.27F
CANNON AFB     SUNNY     48  27  43 VRB1      30.27F
CLOVIS AIRPORT SUNNY     48  27  43 CALM      30.27F

$$
NMZ028-029-538-262000-
SOUTHEAST PLAINS

CITY           SKY/WX    TMP DP  RH WIND       PRES   REMARKS
ROSWELL        SUNNY     62  22  21 E5        30.24F
CARLSBAD         N/A     63  19  18 S3        30.23F
HOBBS          SUNNY     55  25  30 N8        30.28F


$$


USA.gov is the U.S. government's official web portal to all federal, state and local government web resources and services.